Location: Berg
(47.2344°N, 9.5296°E)
Time: 06:31:57
(UTC+00:00)

Envisat - Pass Details

Date: 18 September 2021
Orbit: 764 x 766 km, 98.2° (Epoch: 23 October)

Event Time Altitude Azimuth Distance (km) Brightness Sun altitude
Rises 03:17:36 0° 29° (NNE) 3,243 7.1 -18.2°
Reaches altitude 10° 03:20:46 10° 49° (NE) 2,310 6.6 -17.7°
Maximum altitude 03:23:59 17° 89° (E) 1,881 6.0 -17.2°
Drops below altitude 10° 03:27:11 10° 128° (SE) 2,298 5.9 -16.7°
Sets 03:30:19 0° 149° (SSE) 3,218 6.4 -16.2°
